Time,TemperatureF,DewpointF,PressureIn,WindDirection,WindDirectionDegrees,WindSpeedMPH,WindSpeedGustMPH,Humidity,HourlyPrecipIn,Conditions,Clouds,dailyrainin,SoftwareType,DateUTC
2013-03-18 00:00:00,73.3,73.3,29.98,ESE,123,7.0,11.0,100,0.00,,,0.00,Wunderground v.1.15,2013-03-18 04:00:00,
2013-03-18 00:05:00,73.2,73.2,29.98,ESE,113,7.0,12.0,100,0.00,,,0.00,Wunderground v.1.15,2013-03-18 04:05:00,
2013-03-18 00:10:00,73.2,73.2,29.98,ESE,112,7.0,7.0,100,0.00,,,0.00,Wunderground v.1.15,2013-03-18 04:10:00,
2013-03-18 00:20:00,73.2,73.2,29.97,ENE,71,4.0,11.0,100,0.00,,,0.00,Wunderground v.1.15,2013-03-18 04:20:00,
2013-03-18 00:25:00,73.2,73.2,29.97,SE,143,5.0,11.0,100,0.00,,,0.00,Wunderground v.1.15,2013-03-18 04:25:00,
2013-03-18 00:30:00,73.2,73.2,29.97,East,97,7.0,7.0,100,0.00,,,0.00,Wunderground v.1.15,2013-03-18 04:30:00,
2013-03-18 00:35:00,73.2,73.2,29.97,ESE,107,7.0,8.0,100,0.00,,,0.00,Wunderground v.1.15,2013-03-18 04:35:00,
2013-03-18 00:45:00,73.2,73.2,29.97,ESE,107,6.0,13.0,100,0.00,,,0.00,Wunderground v.1.15,2013-03-18 04:45:00,
2013-03-18 00:50:00,73.2,73.2,29.97,ESE,107,6.0,14.0,100,0.00,,,0.00,Wunderground v.1.15,2013-03-18 04:50:00,
2013-03-18 01:00:00,73.2,73.2,29.97,SE,137,5.0,13.0,100,0.00,,,0.00,Wunderground v.1.15,2013-03-18 05:00:00,
2013-03-18 01:05:00,73.2,73.2,29.97,ESE,114,5.0,13.0,100,0.00,,,0.00,Wunderground v.1.15,2013-03-18 05:05:00,
2013-03-18 01:10:00,73.3,73.3,29.97,ESE,112,5.0,12.0,100,0.00,,,0.00,Wunderground v.1.15,2013-03-18 05:10:00,
2013-03-18 01:20:00,73.2,73.2,29.96,SE,136,4.0,10.0,100,0.00,,,0.00,Wunderground v.1.15,2013-03-18 05:20:00,
2013-03-18 01:30:00,73.2,73.2,29.95,SE,131,5.0,13.0,100,0.00,,,0.00,Wunderground v.1.15,2013-03-18 05:30:00,
2013-03-18 01:40:00,73.3,73.3,29.95,SE,130,6.0,6.0,100,0.00,,,0.00,Wunderground v.1.15,2013-03-18 05:40:00,
2013-03-18 01:50:00,73.3,73.3,29.95,SE,134,6.0,12.0,100,0.00,,,0.00,Wunderground v.1.15,2013-03-18 05:50:00,
2013-03-18 01:55:00,73.3,73.3,29.95,SE,144,8.0,13.0,100,0.00,,,0.00,Wunderground v.1.15,2013-03-18 05:55:00,
2013-03-18 02:00:00,73.3,73.3,29.94,ESE,123,8.0,8.0,100,0.00,,,0.00,Wunderground v.1.15,2013-03-18 06:00:00,
2013-03-18 02:05:00,73.2,73.2,29.94,SE,134,7.0,9.0,100,0.00,,,0.00,Wunderground v.1.15,2013-03-18 06:05:00,
2013-03-18 02:10:00,73.3,73.3,29.94,East,92,7.0,7.0,100,0.00,,,0.00,Wunderground v.1.15,2013-03-18 06:10:00,
2013-03-18 02:15:00,73.3,73.3,29.94,SE,141,8.0,8.0,100,0.00,,,0.00,Wunderground v.1.15,2013-03-18 06:15:00,
2013-03-18 02:20:00,73.3,73.3,29.94,ESE,113,8.0,17.0,100,0.00,,,0.00,Wunderground v.1.15,2013-03-18 06:20:00,
2013-03-18 02:25:00,73.3,73.3,29.94,SE,133,8.0,17.0,100,0.00,,,0.00,Wunderground v.1.15,2013-03-18 06:25:00,
2013-03-18 02:30:00,73.3,73.3,29.93,SE,140,7.0,14.0,100,0.00,,,0.00,Wunderground v.1.15,2013-03-18 06:30:00,
2013-03-18 02:40:00,73.3,73.3,29.93,SSE,155,8.0,8.0,100,0.00,,,0.00,Wunderground v.1.15,2013-03-18 06:40:00,
2013-03-18 02:50:00,73.3,-99.9,29.92,SE,137,7.0,7.0,255,0.00,,,0.00,Wunderground v.1.15,2013-03-18 06:50:00,
2013-03-18 02:55:00,73.3,73.3,29.92,SE,131,8.0,8.0,100,0.00,,,0.00,Wunderground v.1.15,2013-03-18 06:55:00,
2013-03-18 03:00:00,73.5,73.5,29.92,ESE,112,8.0,8.0,100,0.00,,,0.00,Wunderground v.1.15,2013-03-18 07:00:00,
2013-03-18 03:05:00,73.5,73.5,29.92,SE,134,8.0,16.0,100,0.00,,,0.00,Wunderground v.1.15,2013-03-18 07:05:00,
2013-03-18 03:15:00,73.3,73.3,29.91,SE,130,7.0,16.0,100,0.00,,,0.00,Wunderground v.1.15,2013-03-18 07:15:00,
2013-03-18 03:21:00,73.3,73.3,29.91,ESE,114,8.0,8.0,100,0.00,,,0.00,Wunderground v.1.15,2013-03-18 07:21:00,
2013-03-18 03:30:00,73.3,73.3,29.91,ESE,104,8.0,8.0,100,0.00,,,0.00,Wunderground v.1.15,2013-03-18 07:30:00,
2013-03-18 03:45:00,73.3,73.3,29.91,SE,131,8.0,16.0,100,0.00,,,0.00,Wunderground v.1.15,2013-03-18 07:45:00,
2013-03-18 03:55:00,73.5,73.5,29.91,ESE,110,6.0,16.0,100,0.00,,,0.00,Wunderground v.1.15,2013-03-18 07:55:00,
2013-03-18 04:05:00,73.3,73.3,29.91,ESE,121,6.0,12.0,100,0.00,,,0.00,Wunderground v.1.15,2013-03-18 08:05:00,
2013-03-18 04:10:00,73.3,73.3,29.91,ESE,107,7.0,12.0,100,0.00,,,0.00,Wunderground v.1.15,2013-03-18 08:10:00,
2013-03-18 04:20:00,73.3,73.3,29.91,SE,134,7.0,7.0,100,0.00,,,0.00,Wunderground v.1.15,2013-03-18 08:20:00,
2013-03-18 04:30:00,73.5,73.5,29.91,ESE,112,7.0,14.0,100,0.00,,,0.00,Wunderground v.1.15,2013-03-18 08:30:00,
2013-03-18 04:35:00,73.5,73.5,29.91,ESE,121,7.0,14.0,100,0.00,,,0.00,Wunderground v.1.15,2013-03-18 08:35:00,
2013-03-18 04:45:00,73.5,73.5,29.91,ESE,107,8.0,16.0,100,0.00,,,0.00,Wunderground v.1.15,2013-03-18 08:45:00,
2013-03-18 04:55:00,73.5,73.5,29.91,ESE,110,6.0,13.0,100,0.00,,,0.00,Wunderground v.1.15,2013-03-18 08:55:00,
2013-03-18 05:00:00,73.5,73.5,29.92,ESE,116,6.0,10.0,100,0.00,,,0.00,Wunderground v.1.15,2013-03-18 09:00:00,
2013-03-18 05:05:00,73.3,73.3,29.92,ESE,109,7.0,13.0,100,0.00,,,0.00,Wunderground v.1.15,2013-03-18 09:05:00,
2013-03-18 05:15:00,73.3,73.3,29.91,ESE,120,9.0,14.0,100,0.00,,,0.00,Wunderground v.1.15,2013-03-18 09:15:00,
2013-03-18 05:20:00,73.3,73.3,29.91,ESE,123,8.0,8.0,100,0.00,,,0.00,Wunderground v.1.15,2013-03-18 09:20:00,
2013-03-18 05:25:00,73.3,73.3,29.91,East,89,6.0,12.0,100,0.00,,,0.00,Wunderground v.1.15,2013-03-18 09:25:00,
2013-03-18 05:30:00,73.3,73.3,29.91,ESE,113,6.0,6.0,100,0.00,,,0.00,Wunderground v.1.15,2013-03-18 09:30:00,
2013-03-18 05:35:00,73.3,73.3,29.91,ESE,114,8.0,8.0,100,0.00,,,0.00,Wunderground v.1.15,2013-03-18 09:35:00,
2013-03-18 05:40:00,73.5,73.5,29.91,SE,131,8.0,8.0,100,0.00,,,0.00,Wunderground v.1.15,2013-03-18 09:40:00,
2013-03-18 05:50:00,73.3,73.3,29.91,ESE,106,8.0,8.0,100,0.00,,,0.00,Wunderground v.1.15,2013-03-18 09:50:00,
2013-03-18 05:55:00,73.3,73.3,29.91,ESE,114,8.0,13.0,100,0.00,,,0.00,Wunderground v.1.15,2013-03-18 09:55:00,
2013-03-18 06:00:00,73.5,73.5,29.92,SE,128,8.0,8.0,100,0.00,,,0.00,Wunderground v.1.15,2013-03-18 10:00:00,
2013-03-18 06:10:00,73.5,73.5,29.92,ESE,102,7.0,13.0,100,0.00,,,0.00,Wunderground v.1.15,2013-03-18 10:10:00,
2013-03-18 06:15:00,73.5,73.5,29.92,ESE,106,8.0,14.0,100,0.00,,,0.00,Wunderground v.1.15,2013-03-18 10:15:00,
2013-03-18 06:25:00,73.5,73.5,29.92,SE,137,9.0,16.0,100,0.00,,,0.00,Wunderground v.1.15,2013-03-18 10:25:00,
2013-03-18 06:35:00,73.5,73.5,29.92,ESE,119,9.0,14.0,100,0.00,,,0.00,Wunderground v.1.15,2013-03-18 10:35:00,
2013-03-18 06:40:00,73.5,73.5,29.92,ESE,109,9.0,14.0,100,0.00,,,0.00,Wunderground v.1.15,2013-03-18 10:40:00,
2013-03-18 06:45:00,73.5,73.5,29.93,ESE,123,9.0,18.0,100,0.00,,,0.00,Wunderground v.1.15,2013-03-18 10:45:00,
2013-03-18 06:55:00,73.5,73.5,29.93,ESE,109,9.0,10.0,100,0.00,,,0.00,Wunderground v.1.15,2013-03-18 10:55:00,
2013-03-18 07:00:00,73.5,73.5,29.94,ESE,116,9.0,16.0,100,0.00,,,0.00,Wunderground v.1.15,2013-03-18 11:00:00,
2013-03-18 07:05:00,73.5,73.5,29.94,ESE,121,9.0,16.0,100,0.00,,,0.00,Wunderground v.1.15,2013-03-18 11:05:00,
2013-03-18 07:10:00,73.5,73.5,29.94,ESE,107,9.0,9.0,100,0.00,,,0.00,Wunderground v.1.15,2013-03-18 11:10:00,
2013-03-18 07:20:00,73.5,73.5,29.93,ESE,102,7.0,13.0,100,0.00,,,0.00,Wunderground v.1.15,2013-03-18 11:20:00,
2013-03-18 07:25:00,73.5,73.5,29.93,SE,126,7.0,13.0,100,0.00,,,0.00,Wunderground v.1.15,2013-03-18 11:25:00,
2013-03-18 07:35:00,73.5,73.5,29.93,ESE,119,7.0,14.0,100,0.00,,,0.00,Wunderground v.1.15,2013-03-18 11:35:00,
2013-03-18 07:45:00,73.5,73.5,29.93,SE,133,7.0,14.0,100,0.00,,,0.00,Wunderground v.1.15,2013-03-18 11:45:00,
2013-03-18 07:50:00,73.5,73.5,29.93,SE,124,7.0,14.0,100,0.00,,,0.00,Wunderground v.1.15,2013-03-18 11:50:00,
2013-03-18 07:55:00,73.5,73.5,29.93,ESE,121,7.0,14.0,100,0.00,,,0.00,Wunderground v.1.15,2013-03-18 11:55:00,
2013-03-18 08:00:00,73.5,73.5,29.94,ESE,117,7.0,7.0,100,0.00,,,0.00,Wunderground v.1.15,2013-03-18 12:00:00,
2013-03-18 08:10:00,73.7,73.7,29.94,East,83,6.0,12.0,100,0.00,,,0.00,Wunderground v.1.15,2013-03-18 12:10:00,
2013-03-18 08:15:00,73.7,73.7,29.94,SE,126,7.0,12.0,100,0.00,,,0.00,Wunderground v.1.15,2013-03-18 12:15:00,
2013-03-18 08:25:00,74.0,74.0,29.94,ESE,110,8.0,14.0,100,0.00,,,0.00,Wunderground v.1.15,2013-03-18 12:25:00,
2013-03-18 08:30:00,74.2,74.2,29.95,ESE,107,8.0,8.0,100,0.00,,,0.00,Wunderground v.1.15,2013-03-18 12:30:00,
2013-03-18 08:40:00,74.6,74.6,29.95,ESE,117,8.0,16.0,100,0.00,,,0.00,Wunderground v.1.15,2013-03-18 12:40:00,
2013-03-18 08:50:00,74.7,74.7,29.95,SE,144,7.0,14.0,100,0.00,,,0.00,Wunderground v.1.15,2013-03-18 12:50:00,
2013-03-18 08:55:00,74.9,74.9,29.95,ESE,120,8.0,14.0,100,0.00,,,0.00,Wunderground v.1.15,2013-03-18 12:55:00,
2013-03-18 09:05:00,74.9,74.9,29.96,SSE,158,7.0,14.0,100,0.00,,,0.00,Wunderground v.1.15,2013-03-18 13:05:00,
2013-03-18 09:15:00,75.1,75.1,29.97,SE,127,7.0,13.0,100,0.00,,,0.00,Wunderground v.1.15,2013-03-18 13:15:00,
2013-03-18 09:20:00,75.3,75.3,29.97,ESE,104,7.0,7.0,100,0.00,,,0.00,Wunderground v.1.15,2013-03-18 13:20:00,
2013-03-18 09:25:00,75.4,75.4,29.97,SE,126,7.0,13.0,100,0.00,,,0.00,Wunderground v.1.15,2013-03-18 13:25:00,
2013-03-18 09:30:00,75.4,75.4,29.97,SE,141,7.0,12.0,100,0.00,,,0.00,Wunderground v.1.15,2013-03-18 13:30:00,
2013-03-18 09:40:00,76.0,76.0,29.97,SE,124,7.0,14.0,100,0.00,,,0.00,Wunderground v.1.15,2013-03-18 13:40:00,
2013-03-18 09:45:00,75.4,75.4,29.97,SE,130,7.0,14.0,100,0.00,,,0.00,Wunderground v.1.15,2013-03-18 13:45:00,
2013-03-18 09:55:00,74.9,74.9,29.97,SE,134,7.0,16.0,100,0.00,,,0.00,Wunderground v.1.15,2013-03-18 13:55:00,
2013-03-18 10:05:00,76.0,76.0,29.97,SE,141,5.0,12.0,100,0.00,,,0.00,Wunderground v.1.15,2013-03-18 14:05:00,
2013-03-18 10:10:00,76.1,76.1,29.97,East,93,6.0,12.0,100,0.00,,,0.00,Wunderground v.1.15,2013-03-18 14:10:00,
2013-03-18 10:15:00,76.3,76.3,29.97,SE,145,6.0,12.0,100,0.00,,,0.00,Wunderground v.1.15,2013-03-18 14:15:00,
2013-03-18 10:25:00,76.0,76.0,29.97,ESE,117,10.0,10.0,100,0.00,,,0.00,Wunderground v.1.15,2013-03-18 14:25:00,
2013-03-18 10:35:00,76.1,76.1,29.97,ESE,112,9.0,16.0,100,0.00,,,0.00,Wunderground v.1.15,2013-03-18 14:35:00,
2013-03-18 10:40:00,76.5,76.5,29.97,ESE,119,9.0,14.0,100,0.00,,,0.00,Wunderground v.1.15,2013-03-18 14:40:00,
2013-03-18 10:50:00,76.1,76.1,29.97,SE,140,10.0,10.0,100,0.00,,,0.00,Wunderground v.1.15,2013-03-18 14:50:00,
2013-03-18 10:55:00,76.1,76.1,29.97,SE,124,11.0,11.0,100,0.00,,,0.00,Wunderground v.1.15,2013-03-18 14:55:00,
2013-03-18 11:00:00,76.1,76.1,29.97,SE,134,10.0,10.0,100,0.00,,,0.00,Wunderground v.1.15,2013-03-18 15:00:00,
2013-03-18 11:05:00,76.5,76.5,29.97,SE,145,9.0,14.0,100,0.00,,,0.00,Wunderground v.1.15,2013-03-18 15:05:00,
2013-03-18 11:15:00,76.3,76.3,29.96,SE,124,11.0,17.0,100,0.00,,,0.00,Wunderground v.1.15,2013-03-18 15:15:00,
2013-03-18 11:20:00,76.5,76.5,29.96,ESE,117,11.0,18.0,100,0.00,,,0.00,Wunderground v.1.15,2013-03-18 15:20:00,
2013-03-18 11:30:00,76.7,76.7,29.95,SE,126,11.0,11.0,100,0.00,,,0.00,Wunderground v.1.15,2013-03-18 15:30:00,
2013-03-18 11:35:00,76.5,76.5,29.95,SE,126,11.0,13.0,100,0.00,,,0.00,Wunderground v.1.15,2013-03-18 15:35:00,
2013-03-18 11:40:00,76.7,76.7,29.95,SE,145,11.0,11.0,100,0.00,,,0.00,Wunderground v.1.15,2013-03-18 15:40:00,
2013-03-18 11:45:00,76.5,76.5,29.95,SE,133,12.0,12.0,100,0.00,,,0.00,Wunderground v.1.15,2013-03-18 15:45:00,
2013-03-18 11:55:00,76.7,76.7,29.95,SE,127,13.0,20.0,100,0.00,,,0.00,Wunderground v.1.15,2013-03-18 15:55:00,
2013-03-18 12:00:00,76.5,76.5,29.94,ESE,120,14.0,21.0,100,0.00,,,0.00,Wunderground v.1.15,2013-03-18 16:00:00,
2013-03-18 12:05:00,76.5,76.5,29.94,ESE,123,14.0,21.0,100,0.00,,,0.00,Wunderground v.1.15,2013-03-18 16:05:00,
2013-03-18 12:15:00,76.5,76.5,29.93,SSE,157,14.0,21.0,100,0.00,,,0.00,Wunderground v.1.15,2013-03-18 16:15:00,
2013-03-18 12:20:00,76.7,76.7,29.93,SSE,162,13.0,21.0,100,0.00,,,0.00,Wunderground v.1.15,2013-03-18 16:20:00,
2013-03-18 12:30:00,77.0,77.0,29.93,SE,131,12.0,12.0,100,0.00,,,0.00,Wunderground v.1.15,2013-03-18 16:30:00,
2013-03-18 12:35:00,77.4,77.4,29.93,ESE,120,10.0,17.0,100,0.00,,,0.00,Wunderground v.1.15,2013-03-18 16:35:00,
2013-03-18 12:40:00,77.6,77.6,29.93,SE,144,8.0,8.0,100,0.00,,,0.00,Wunderground v.1.15,2013-03-18 16:40:00,
2013-03-18 12:50:00,77.0,77.0,29.93,SE,127,10.0,19.0,100,0.00,,,0.00,Wunderground v.1.15,2013-03-18 16:50:00,
2013-03-18 12:55:00,77.2,77.2,29.93,SE,137,11.0,19.0,100,0.00,,,0.00,Wunderground v.1.15,2013-03-18 16:55:00,
2013-03-18 13:00:00,77.0,77.0,29.93,SE,137,12.0,18.0,100,0.00,,,0.00,Wunderground v.1.15,2013-03-18 17:00:00,
2013-03-18 13:10:00,77.7,77.7,29.93,ESE,120,9.0,9.0,100,0.00,,,0.00,Wunderground v.1.15,2013-03-18 17:10:00,
2013-03-18 13:15:00,78.1,78.1,29.94,SSE,150,7.0,13.0,100,0.00,,,0.00,Wunderground v.1.15,2013-03-18 17:15:00,
2013-03-18 13:20:00,78.1,78.1,29.94,East,93,7.0,11.0,100,0.00,,,0.00,Wunderground v.1.15,2013-03-18 17:20:00,
2013-03-18 13:25:00,78.5,78.5,29.94,SSE,150,8.0,17.0,100,0.00,,,0.00,Wunderground v.1.15,2013-03-18 17:25:00,
2013-03-18 13:30:00,78.3,78.3,29.92,East,99,8.0,16.0,100,0.00,,,0.00,Wunderground v.1.15,2013-03-18 17:30:00,
2013-03-18 13:35:00,77.7,77.7,29.92,South,172,8.0,16.0,100,0.00,,,0.00,Wunderground v.1.15,2013-03-18 17:35:00,
2013-03-18 13:40:00,77.4,77.4,29.92,SE,127,9.0,9.0,100,0.00,,,0.00,Wunderground v.1.15,2013-03-18 17:40:00,
2013-03-18 13:50:00,77.2,77.2,29.91,South,172,8.0,8.0,100,0.00,,,0.00,Wunderground v.1.15,2013-03-18 17:50:00,
2013-03-18 13:55:00,77.7,77.7,29.91,SE,144,7.0,14.0,100,0.00,,,0.00,Wunderground v.1.15,2013-03-18 17:55:00,
2013-03-18 14:00:00,77.4,77.4,29.91,ESE,117,7.0,7.0,100,0.00,,,0.00,Wunderground v.1.15,2013-03-18 18:00:00,
2013-03-18 14:10:00,77.9,77.9,29.91,ESE,103,9.0,20.0,100,0.00,,,0.00,Wunderground v.1.15,2013-03-18 18:10:00,
2013-03-18 14:15:00,78.1,78.1,29.90,SE,133,8.0,20.0,100,0.00,,,0.00,Wunderground v.1.15,2013-03-18 18:15:00,
2013-03-18 14:20:00,78.3,78.3,29.90,SSE,158,8.0,8.0,100,0.00,,,0.00,Wunderground v.1.15,2013-03-18 18:20:00,
2013-03-18 14:30:00,77.7,77.7,29.89,SSE,161,9.0,9.0,100,0.00,,,0.00,Wunderground v.1.15,2013-03-18 18:30:00,
2013-03-18 14:40:00,77.7,77.7,29.89,ESE,112,9.0,16.0,100,0.00,,,0.00,Wunderground v.1.15,2013-03-18 18:40:00,
2013-03-18 14:45:00,77.7,77.7,29.89,SE,127,8.0,17.0,100,0.00,,,0.00,Wunderground v.1.15,2013-03-18 18:45:00,
2013-03-18 14:50:00,77.6,77.6,29.89,ESE,123,7.0,15.0,100,0.00,,,0.00,Wunderground v.1.15,2013-03-18 18:50:00,
2013-03-18 14:55:00,77.4,77.4,29.89,ESE,106,7.0,15.0,100,0.00,,,0.00,Wunderground v.1.15,2013-03-18 18:55:00,
2013-03-18 15:00:00,77.4,77.4,29.87,SE,134,9.0,9.0,100,0.00,,,0.00,Wunderground v.1.15,2013-03-18 19:00:00,
2013-03-18 15:05:00,77.7,77.7,29.87,SE,144,9.0,18.0,100,0.00,,,0.00,Wunderground v.1.15,2013-03-18 19:05:00,
2013-03-18 15:10:00,77.7,77.7,29.87,East,93,9.0,16.0,100,0.00,,,0.00,Wunderground v.1.15,2013-03-18 19:10:00,
2013-03-18 15:20:00,77.9,77.9,29.87,SE,127,8.0,8.0,100,0.00,,,0.00,Wunderground v.1.15,2013-03-18 19:20:00,
2013-03-18 15:25:00,78.1,78.1,29.87,SSE,157,8.0,18.0,100,0.00,,,0.00,Wunderground v.1.15,2013-03-18 19:25:00,
2013-03-18 15:35:00,78.5,78.5,29.88,SE,141,8.0,16.0,100,0.00,,,0.00,Wunderground v.1.15,2013-03-18 19:35:00,
2013-03-18 15:40:00,78.5,78.5,29.88,East,97,7.0,7.0,100,0.00,,,0.00,Wunderground v.1.15,2013-03-18 19:40:00,
2013-03-18 15:45:00,78.1,78.1,29.89,South,176,6.0,8.0,100,0.00,,,0.00,Wunderground v.1.15,2013-03-18 19:45:00,
2013-03-18 15:50:00,77.7,77.7,29.89,SE,134,6.0,6.0,100,0.00,,,0.00,Wunderground v.1.15,2013-03-18 19:50:00,
2013-03-18 15:55:00,77.4,77.4,29.89,SSE,161,6.0,11.0,100,0.00,,,0.00,Wunderground v.1.15,2013-03-18 19:55:00,
2013-03-18 16:00:00,77.0,77.0,29.89,South,181,6.0,11.0,100,0.00,,,0.00,Wunderground v.1.15,2013-03-18 20:00:00,
2013-03-18 16:05:00,77.0,77.0,29.89,SSE,157,5.0,11.0,100,0.00,,,0.00,Wunderground v.1.15,2013-03-18 20:05:00,
2013-03-18 16:10:00,76.8,76.8,29.89,SE,140,5.0,5.0,100,0.00,,,0.00,Wunderground v.1.15,2013-03-18 20:10:00,
2013-03-18 16:15:00,76.8,76.8,29.89,SSE,161,5.0,7.0,100,0.00,,,0.00,Wunderground v.1.15,2013-03-18 20:15:00,
2013-03-18 16:20:00,76.8,76.8,29.89,South,175,4.0,11.0,100,0.00,,,0.00,Wunderground v.1.15,2013-03-18 20:20:00,
2013-03-18 16:25:00,77.0,77.0,29.89,SSE,148,2.0,11.0,100,0.00,,,0.00,Wunderground v.1.15,2013-03-18 20:25:00,
2013-03-18 16:30:00,77.0,77.0,29.89,ESE,121,2.0,7.0,100,0.00,,,0.00,Wunderground v.1.15,2013-03-18 20:30:00,
2013-03-18 16:35:00,76.7,76.7,29.89,ESE,123,3.0,7.0,100,0.00,,,0.00,Wunderground v.1.15,2013-03-18 20:35:00,
2013-03-18 16:45:00,76.1,76.1,29.88,SE,134,3.0,6.0,100,0.00,,,0.00,Wunderground v.1.15,2013-03-18 20:45:00,
2013-03-18 16:50:00,76.1,76.1,29.88,SE,126,5.0,5.0,100,0.00,,,0.00,Wunderground v.1.15,2013-03-18 20:50:00,
2013-03-18 16:55:00,76.1,76.1,29.88,SE,130,5.0,6.0,100,0.00,,,0.00,Wunderground v.1.15,2013-03-18 20:55:00,
2013-03-18 17:00:00,76.3,76.3,29.88,SE,127,4.0,10.0,100,0.00,,,0.00,Wunderground v.1.15,2013-03-18 21:00:00,
2013-03-18 17:05:00,76.1,76.1,29.88,SE,127,3.0,10.0,100,0.00,,,0.00,Wunderground v.1.15,2013-03-18 21:05:00,
2013-03-18 17:15:00,76.3,76.3,29.88,SE,131,1.0,8.0,100,0.00,,,0.00,Wunderground v.1.15,2013-03-18 21:15:00,
2013-03-18 17:20:00,76.5,76.5,29.88,SE,131,0.0,6.0,100,0.00,,,0.00,Wunderground v.1.15,2013-03-18 21:20:00,
2013-03-18 17:30:00,76.3,76.3,29.87,ESE,117,2.0,2.0,100,0.00,,,0.00,Wunderground v.1.15,2013-03-18 21:30:00,
2013-03-18 17:35:00,76.3,76.3,29.87,SE,126,2.0,7.0,100,0.00,,,0.00,Wunderground v.1.15,2013-03-18 21:35:00,
2013-03-18 17:40:00,76.3,76.3,29.87,ESE,121,2.0,8.0,100,0.00,,,0.00,Wunderground v.1.15,2013-03-18 21:40:00,
2013-03-18 17:50:00,76.1,76.1,29.88,ESE,123,1.0,6.0,100,0.00,,,0.00,Wunderground v.1.15,2013-03-18 21:50:00,
2013-03-18 17:55:00,76.0,76.0,29.88,ESE,123,1.0,6.0,100,0.00,,,0.00,Wunderground v.1.15,2013-03-18 21:55:00,
2013-03-18 18:00:00,76.1,76.1,29.89,ESE,121,1.0,1.0,100,0.00,,,0.00,Wunderground v.1.15,2013-03-18 22:00:00,
2013-03-18 18:05:00,76.3,76.3,29.89,ESE,121,1.0,3.0,100,0.00,,,0.00,Wunderground v.1.15,2013-03-18 22:05:00,
2013-03-18 18:10:00,76.1,76.1,29.89,ESE,119,1.0,1.0,100,0.00,,,0.00,Wunderground v.1.15,2013-03-18 22:10:00,
2013-03-18 18:15:00,76.1,76.1,29.89,ESE,119,1.0,6.0,100,0.00,,,0.00,Wunderground v.1.15,2013-03-18 22:15:00,
2013-03-18 18:20:00,76.3,76.3,29.89,ESE,119,1.0,1.0,100,0.00,,,0.00,Wunderground v.1.15,2013-03-18 22:20:00,
2013-03-18 18:25:00,76.1,76.1,29.89,ESE,119,1.0,5.0,100,0.00,,,0.00,Wunderground v.1.15,2013-03-18 22:25:00,
2013-03-18 18:35:00,76.0,76.0,29.89,ESE,119,0.0,5.0,100,0.00,,,0.00,Wunderground v.1.15,2013-03-18 22:35:00,
2013-03-18 18:40:00,75.8,75.8,29.89,ESE,119,0.0,0.0,100,0.00,,,0.00,Wunderground v.1.15,2013-03-18 22:40:00,
2013-03-18 18:45:00,75.8,75.8,29.88,ESE,119,0.0,0.0,100,0.00,,,0.00,Wunderground v.1.15,2013-03-18 22:45:00,
2013-03-18 18:50:00,75.8,75.8,29.88,ESE,119,0.0,0.0,100,0.00,,,0.00,Wunderground v.1.15,2013-03-18 22:50:00,
2013-03-18 19:00:00,75.6,75.6,29.88,ESE,119,0.0,0.0,100,0.00,,,0.00,Wunderground v.1.15,2013-03-18 23:00:00,
2013-03-18 19:05:00,75.6,75.6,29.88,ESE,119,0.0,0.0,100,0.00,,,0.00,Wunderground v.1.15,2013-03-18 23:05:00,
2013-03-18 19:10:00,75.6,75.6,29.88,ESE,119,0.0,0.0,100,0.00,,,0.00,Wunderground v.1.15,2013-03-18 23:10:00,
2013-03-18 19:20:00,75.6,75.6,29.89,ESE,119,0.0,0.0,100,0.00,,,0.00,Wunderground v.1.15,2013-03-18 23:20:00,
2013-03-18 19:30:00,74.9,74.9,29.89,ESE,119,0.0,1.0,100,0.00,,,0.00,Wunderground v.1.15,2013-03-18 23:30:00,
2013-03-18 19:35:00,74.9,74.9,29.89,ESE,119,0.0,1.0,100,0.00,,,0.00,Wunderground v.1.15,2013-03-18 23:35:00,
2013-03-18 19:40:00,74.7,74.7,29.89,ESE,119,0.0,0.0,100,0.00,,,0.00,Wunderground v.1.15,2013-03-18 23:40:00,
2013-03-18 19:45:00,74.7,74.7,29.88,ESE,119,0.0,0.0,100,0.00,,,0.00,Wunderground v.1.15,2013-03-18 23:45:00,
2013-03-18 19:50:00,74.6,74.6,29.88,ESE,119,0.0,0.0,100,0.00,,,0.00,Wunderground v.1.15,2013-03-18 23:50:00,
2013-03-18 19:55:00,74.6,74.6,29.88,ESE,119,0.0,0.0,100,0.00,,,0.00,Wunderground v.1.15,2013-03-18 23:55:00,
2013-03-18 20:00:00,74.6,74.6,29.88,ESE,119,0.0,0.0,100,0.00,,,0.00,Wunderground v.1.15,2013-03-19 00:00:00,
2013-03-18 20:10:00,74.4,74.4,29.88,ESE,119,0.0,0.0,100,0.00,,,0.00,Wunderground v.1.15,2013-03-19 00:10:00,
2013-03-18 20:20:00,74.4,74.4,29.88,ESE,119,0.0,0.0,100,0.00,,,0.00,Wunderground v.1.15,2013-03-19 00:20:00,
2013-03-18 20:25:00,74.4,74.4,29.88,ESE,119,0.0,0.0,100,0.00,,,0.00,Wunderground v.1.15,2013-03-19 00:25:00,
2013-03-18 20:30:00,74.4,74.4,29.88,ESE,119,0.0,0.0,100,0.00,,,0.00,Wunderground v.1.15,2013-03-19 00:30:00,
2013-03-18 20:35:00,74.2,74.2,29.88,ESE,119,0.0,0.0,100,0.00,,,0.00,Wunderground v.1.15,2013-03-19 00:35:00,
2013-03-18 20:40:00,74.2,74.2,29.88,ESE,119,0.0,0.0,100,0.00,,,0.00,Wunderground v.1.15,2013-03-19 00:40:00,
2013-03-18 20:45:00,74.0,74.0,29.89,ESE,119,0.0,0.0,100,0.00,,,0.00,Wunderground v.1.15,2013-03-19 00:45:00,
2013-03-18 20:55:00,73.9,73.9,29.89,ESE,119,0.0,0.0,100,0.00,,,0.00,Wunderground v.1.15,2013-03-19 00:55:00,
2013-03-18 21:00:00,73.7,73.7,29.89,ESE,119,0.0,0.0,100,0.00,,,0.00,Wunderground v.1.15,2013-03-19 01:00:00,
2013-03-18 21:10:00,73.5,73.5,29.89,ESE,119,0.0,0.0,100,0.00,,,0.00,Wunderground v.1.15,2013-03-19 01:10:00,
2013-03-18 21:20:00,73.5,73.5,29.89,ESE,119,0.0,0.0,100,0.00,,,0.00,Wunderground v.1.15,2013-03-19 01:20:00,
2013-03-18 21:25:00,73.5,73.5,29.89,ESE,119,0.0,0.0,100,0.00,,,0.00,Wunderground v.1.15,2013-03-19 01:25:00,
2013-03-18 21:35:00,73.5,73.5,29.89,ESE,119,0.0,0.0,100,0.00,,,0.00,Wunderground v.1.15,2013-03-19 01:35:00,
2013-03-18 21:45:00,73.5,73.5,29.89,ESE,119,0.0,0.0,100,0.00,,,0.00,Wunderground v.1.15,2013-03-19 01:45:00,
2013-03-18 21:50:00,73.5,73.5,29.89,ESE,119,0.0,0.0,100,0.00,,,0.00,Wunderground v.1.15,2013-03-19 01:50:00,
2013-03-18 21:55:00,73.3,73.3,29.89,ESE,119,0.0,0.0,100,0.00,,,0.00,Wunderground v.1.15,2013-03-19 01:55:00,
2013-03-18 22:00:00,73.5,73.5,29.89,ESE,119,0.0,0.0,100,0.00,,,0.00,Wunderground v.1.15,2013-03-19 02:00:00,
2013-03-18 22:10:00,73.7,73.7,29.89,ESE,119,0.0,0.0,100,0.00,,,0.00,Wunderground v.1.15,2013-03-19 02:10:00,
2013-03-18 22:15:00,73.9,73.9,29.90,ESE,119,0.0,0.0,100,0.00,,,0.00,Wunderground v.1.15,2013-03-19 02:15:00,
2013-03-18 22:20:00,73.9,73.9,29.90,ESE,119,0.0,0.0,100,0.00,,,0.00,Wunderground v.1.15,2013-03-19 02:20:00,
2013-03-18 22:25:00,74.0,74.0,29.90,ESE,119,0.0,0.0,100,0.00,,,0.00,Wunderground v.1.15,2013-03-19 02:25:00,
2013-03-18 22:30:00,74.0,74.0,29.90,ESE,119,0.0,0.0,100,0.00,,,0.00,Wunderground v.1.15,2013-03-19 02:30:00,
2013-03-18 22:35:00,74.0,74.0,29.90,ESE,119,0.0,0.0,100,0.00,,,0.00,Wunderground v.1.15,2013-03-19 02:35:00,
2013-03-18 22:40:00,74.0,74.0,29.90,ESE,119,0.0,0.0,100,0.00,,,0.00,Wunderground v.1.15,2013-03-19 02:40:00,
2013-03-18 22:45:00,74.0,74.0,29.91,ESE,119,0.0,0.0,100,0.00,,,0.00,Wunderground v.1.15,2013-03-19 02:45:00,
2013-03-18 22:50:00,74.0,74.0,29.91,ESE,119,0.0,0.0,100,0.00,,,0.00,Wunderground v.1.15,2013-03-19 02:50:00,
2013-03-18 23:00:00,74.0,74.0,29.90,ESE,119,0.0,0.0,100,0.00,,,0.00,Wunderground v.1.15,2013-03-19 03:00:00,
2013-03-18 23:05:00,74.0,74.0,29.90,ESE,119,0.0,0.0,100,0.00,,,0.00,Wunderground v.1.15,2013-03-19 03:05:00,
2013-03-18 23:15:00,74.0,74.0,29.91,ESE,119,0.0,0.0,100,0.00,,,0.00,Wunderground v.1.15,2013-03-19 03:15:00,
2013-03-18 23:20:00,74.0,74.0,29.91,ESE,119,0.0,0.0,100,0.00,,,0.00,Wunderground v.1.15,2013-03-19 03:20:00,
2013-03-18 23:25:00,74.0,74.0,29.91,ESE,119,0.0,0.0,100,0.00,,,0.00,Wunderground v.1.15,2013-03-19 03:25:00,
2013-03-18 23:35:00,74.0,74.0,29.91,ESE,119,0.0,0.0,100,0.00,,,0.00,Wunderground v.1.15,2013-03-19 03:35:00,
2013-03-18 23:40:00,74.0,74.0,29.91,ESE,119,0.0,0.0,100,0.00,,,0.00,Wunderground v.1.15,2013-03-19 03:40:00,
2013-03-18 23:45:00,74.0,74.0,29.90,ESE,119,0.0,0.0,100,0.00,,,0.00,Wunderground v.1.15,2013-03-19 03:45:00,
2013-03-18 23:55:00,74.0,74.0,29.90,ESE,119,0.0,0.0,100,0.00,,,0.00,Wunderground v.1.15,2013-03-19 03:55:00,